| time (UTC) | temp F | wind direction | speed knots | gust knots | rain 1hr in | rain 24hr in | rain mn in | humidity % | barometer mb |
| 20260510010823 | 75 | 55 | 2.6 | 2.6 | 0.00 | 0.00 | 0.00 | 31 | 1014.9 |
| 20260510010320 | 75 | 85 | 0.9 | 0.9 | 0.00 | 0.00 | 0.00 | 32 | 1014.7 |
| 20260510005817 | 77 | 69 | 1.7 | 3.5 | 0.00 | 0.00 | 0.00 | 31 | 1015.0 |
| 20260510005313 | 75 | 173 | 0.9 | 0.9 | 0.00 | 0.00 | 0.00 | 33 | 1014.8 |
| 20260510004811 | 75 | 126 | 0.9 | 0.9 | 0.00 | 0.00 | 0.00 | 33 | 1014.9 |
| 20260510004308 | 75 | 58 | 1.7 | 1.7 | 0.00 | 0.00 | 0.00 | 32 | 1014.8 |
| 20260510003806 | 76 | 140 | 0.0 | 0.9 | 0.00 | 0.00 | 0.00 | 33 | 1014.9 |
| 20260510003302 | 77 | 145 | 0.9 | 0.9 | 0.00 | 0.00 | 0.00 | 33 | 1015.0 |
| 20260510002801 | 77 | 110 | 0.9 | 1.7 | 0.00 | 0.00 | 0.00 | 33 | 1014.8 |
| 20260510002259 | 76 | 131 | 0.0 | 0.0 | 0.00 | 0.00 | 0.00 | 34 | 1014.9 |
| 20260510001755 | 76 | 149 | 0.9 | 0.9 | 0.00 | 0.00 | 0.00 | 33 | 1014.8 |
| 20260510001254 | 76 | 167 | 1.7 | 1.7 | 0.00 | 0.00 | 0.00 | 33 | 1014.9 |
| 20260510000749 | 77 | 99 | 0.9 | 1.7 | 0.00 | 0.00 | 0.00 | 32 | 1014.8 |
| 20260510000248 | 78 | 135 | 0.0 | 0.0 | 0.00 | 0.00 | 0.00 | 33 | 1014.9 |
| 20260509235744 | 77 | 157 | 0.0 | 0.0 | 0.00 | 0.00 | 0.00 | 32 | 1014.9 |
| 20260509235240 | 75 | 141 | 0.0 | 0.9 | 0.00 | 0.00 | 0.00 | 34 | 1014.9 |
| 20260509234736 | 75 | 78 | 2.6 | 2.6 | 0.00 | 0.00 | 0.00 | 34 | 1015.0 |
| 20260509234233 | 76 | 108 | 0.9 | 0.9 | 0.00 | 0.00 | 0.00 | 34 | 1015.0 |
| 20260509233731 | 75 | 96 | 0.9 | 0.9 | 0.00 | 0.00 | 0.00 | 34 | 1015.1 |
| 20260509233228 | 76 | 139 | 0.9 | 1.7 | 0.00 | 0.00 | 0.00 | 34 | 1015.1 |
| 20260509232724 | 76 | 119 | 0.9 | 0.9 | 0.00 | 0.00 | 0.00 | 33 | 1014.9 |
| 20260509232222 | 77 | 160 | 1.7 | 1.7 | 0.00 | 0.00 | 0.00 | 33 | 1014.9 |
| 20260509231718 | 78 | 165 | 0.9 | 0.9 | 0.00 | 0.00 | 0.00 | 31 | 1015.2 |
| 20260509231215 | 76 | 155 | 0.0 | 0.0 | 0.00 | 0.00 | 0.00 | 32 | 1015.3 |
| 20260509230713 | 75 | 144 | 1.7 | 1.7 | 0.00 | 0.00 | 0.00 | 35 | 1015.1 |
| 20260509230209 | 76 | 153 | 0.9 | 1.7 | 0.00 | 0.00 | 0.00 | 33 | 1015.2 |
| 20260509225705 | 76 | 151 | 1.7 | 3.5 | 0.00 | 0.00 | 0.00 | 34 | 1015.3 |
| 20260509225201 | 75 | 131 | 0.9 | 0.9 | 0.00 | 0.00 | 0.00 | 34 | 1015.1 |
| 20260509224656 | 77 | 175 | 1.7 | 2.6 | 0.00 | 0.00 | 0.00 | 34 | 1015.7 |
| 20260509224154 | 76 | 144 | 0.9 | 1.7 | 0.00 | 0.00 | 0.00 | 34 | 1015.2 |
| 20260509223651 | 76 | 120 | 2.6 | 2.6 | 0.00 | 0.00 | 0.00 | 34 | 1015.2 |
| 20260509223148 | 74 | 116 | 1.7 | 2.6 | 0.00 | 0.00 | 0.00 | 35 | 1015.5 |
| 20260509222644 | 75 | 152 | 0.0 | 0.0 | 0.00 | 0.00 | 0.00 | 37 | 1015.6 |
| 20260509222140 | 74 | 127 | 0.9 | 1.7 | 0.00 | 0.00 | 0.00 | 36 | 1015.6 |
| 20260509221636 | 74 | 148 | 0.9 | 0.9 | 0.00 | 0.00 | 0.00 | 35 | 1015.7 |
| 20260509221132 | 75 | 134 | 0.9 | 1.7 | 0.00 | 0.00 | 0.00 | 36 | 1015.6 |
| 20260509220628 | 75 | 118 | 2.6 | 3.5 | 0.00 | 0.00 | 0.00 | 36 | 1015.9 |
| 20260509220124 | 75 | 142 | 1.7 | 1.7 | 0.00 | 0.00 | 0.00 | 36 | 1015.9 |
| 20260509215620 | 72 | 111 | 0.9 | 0.9 | 0.00 | 0.00 | 0.00 | 38 | 1015.9 |
| 20260509215117 | 74 | 143 | 0.9 | 1.7 | 0.00 | 0.00 | 0.00 | 39 | 1016.0 |
| 20260509214614 | 74 | 157 | 2.6 | 2.6 | 0.00 | 0.00 | 0.00 | 36 | 1016.0 |
| 20260509214111 | 73 | 147 | 0.0 | 0.0 | 0.00 | 0.00 | 0.00 | 38 | 1016.0 |
| 20260509213607 | 73 | 89 | 2.6 | 3.5 | 0.00 | 0.00 | 0.00 | 36 | 1016.1 |
| 20260509213104 | 72 | 123 | 1.7 | 2.6 | 0.00 | 0.00 | 0.00 | 39 | 1016.3 |
| 20260509212601 | 72 | 76 | 0.9 | 2.6 | 0.00 | 0.00 | 0.00 | 38 | 1016.1 |
| 20260509212058 | 73 | 143 | 0.9 | 0.9 | 0.00 | 0.00 | 0.00 | 38 | 1016.3 |
| 20260509211554 | 74 | 146 | 0.0 | 0.0 | 0.00 | 0.00 | 0.00 | 37 | 1016.1 |
| 20260509211050 | 74 | 145 | 0.0 | 0.9 | 0.00 | 0.00 | 0.00 | 38 | 1016.3 |
| 20260509210548 | 74 | 147 | 0.9 | 1.7 | 0.00 | 0.00 | 0.00 | 36 | 1016.5 |
| 20260509210044 | 73 | 124 | 2.6 | 2.6 | 0.00 | 0.00 | 0.00 | 36 | 1016.5 |
| 20260509205544 | 71 | 181 | 0.9 | 0.9 | 0.00 | 0.00 | 0.00 | 36 | 1016.3 |
| 20260509205039 | 71 | 49 | 1.7 | 2.6 | 0.00 | 0.00 | 0.00 | 37 | 1016.6 |
| 20260509204536 | 72 | 173 | 0.9 | 0.9 | 0.00 | 0.00 | 0.00 | 36 | 1016.6 |
| 20260509204032 | 71 | 114 | 0.9 | 0.9 | 0.00 | 0.00 | 0.00 | 38 | 1016.8 |
| 20260509203528 | 72 | 139 | 1.7 | 2.6 | 0.00 | 0.00 | 0.00 | 36 | 1016.5 |
| 20260509203027 | 71 | 35 | 1.7 | 3.5 | 0.00 | 0.00 | 0.00 | 37 | 1016.4 |
| 20260509202521 | 72 | 88 | 0.9 | 1.7 | 0.00 | 0.00 | 0.00 | 36 | 1016.6 |
| 20260509202017 | 71 | 145 | 0.9 | 0.9 | 0.00 | 0.00 | 0.00 | 37 | 1016.6 |
| 20260509201512 | 70 | 86 | 1.7 | 2.6 | 0.00 | 0.00 | 0.00 | 38 | 1017.0 |
| 20260509201009 | 69 | 331 | 1.7 | 2.6 | 0.00 | 0.00 | 0.00 | 39 | 1016.9 |
| 20260509200504 | 70 | 127 | 2.6 | 2.6 | 0.00 | 0.00 | 0.00 | 40 | 1017.0 |
| 20260509200001 | 69 | 46 | 1.7 | 1.7 | 0.00 | 0.00 | 0.00 | 40 | 1017.2 |
| 20260509195456 | 69 | 81 | 2.6 | 5.2 | 0.00 | 0.00 | 0.00 | 42 | 1017.2 |
| 20260509194955 | 69 | 70 | 3.5 | 3.5 | 0.00 | 0.00 | 0.00 | 41 | 1017.3 |
| 20260509194451 | 70 | 132 | 0.0 | 0.0 | 0.00 | 0.00 | 0.00 | 40 | 1017.1 |
| 20260509193948 | 68 | 107 | 2.6 | 2.6 | 0.00 | 0.00 | 0.00 | 40 | 1017.4 |
| 20260509193443 | 68 | 150 | 1.7 | 2.6 | 0.00 | 0.00 | 0.00 | 41 | 1017.6 |
| 20260509192939 | 68 | 209 | 2.6 | 2.6 | 0.00 | 0.00 | 0.00 | 41 | 1017.6 |
| 20260509192436 | 70 | 135 | 2.6 | 3.5 | 0.00 | 0.00 | 0.00 | 40 | 1017.6 |
| 20260509191931 | 69 | 109 | 0.0 | 0.0 | 0.00 | 0.00 | 0.00 | 40 | 1017.7 |
| 20260509191426 | 68 | 116 | 0.0 | 0.9 | 0.00 | 0.00 | 0.00 | 40 | 1017.7 |
| 20260509190922 | 67 | 89 | 0.0 | 0.9 | 0.00 | 0.00 | 0.00 | 42 | 1017.8 |
| 20260509190420 | 67 | 151 | 1.7 | 1.7 | 0.00 | 0.00 | 0.00 | 42 | 1017.7 |
| 20260509185918 | 67 | 135 | 1.7 | 1.7 | 0.00 | 0.00 | 0.00 | 42 | 1017.7 |
| 20260509185415 | 67 | 127 | 0.9 | 2.6 | 0.00 | 0.00 | 0.00 | 43 | 1017.9 |
| 20260509184911 | 66 | 87 | 2.6 | 2.6 | 0.00 | 0.00 | 0.00 | 42 | 1018.1 |
| 20260509184408 | 67 | 141 | 0.0 | 0.9 | 0.00 | 0.00 | 0.00 | 41 | 1018.3 |
| 20260509183905 | 66 | 136 | 0.9 | 0.9 | 0.00 | 0.00 | 0.00 | 44 | 1018.1 |
| 20260509183359 | 66 | 96 | 1.7 | 2.6 | 0.00 | 0.00 | 0.00 | 43 | 1018.1 |
| 20260509182856 | 65 | 182 | 3.5 | 3.5 | 0.00 | 0.00 | 0.00 | 43 | 1018.3 |
| 20260509182353 | 67 | 163 | 5.2 | 6.1 | 0.00 | 0.00 | 0.00 | 44 | 1018.2 |
| 20260509181850 | 65 | 146 | 2.6 | 2.6 | 0.00 | 0.00 | 0.00 | 46 | 1018.3 |
| 20260509181347 | 65 | 144 | 0.9 | 1.7 | 0.00 | 0.00 | 0.00 | 43 | 1018.3 |
| 20260509180845 | 65 | 131 | 3.5 | 5.2 | 0.00 | 0.00 | 0.00 | 45 | 1018.4 |
| 20260509180341 | 64 | 164 | 3.5 | 5.2 | 0.00 | 0.00 | 0.00 | 45 | 1018.4 |
| 20260509175838 | 64 | 125 | 1.7 | 2.6 | 0.00 | 0.00 | 0.00 | 49 | 1018.5 |
| 20260509175334 | 63 | 128 | 2.6 | 2.6 | 0.00 | 0.00 | 0.00 | 48 | 1018.4 |
| 20260509174830 | 63 | 126 | 1.7 | 1.7 | 0.00 | 0.00 | 0.00 | 49 | 1018.6 |
| 20260509174326 | 64 | 173 | 4.3 | 6.1 | 0.00 | 0.00 | 0.00 | 47 | 1018.5 |
| 20260509173822 | 63 | 101 | 0.9 | 0.9 | 0.00 | 0.00 | 0.00 | 48 | 1018.5 |
| 20260509173317 | 63 | 107 | 2.6 | 2.6 | 0.00 | 0.00 | 0.00 | 47 | 1018.5 |
| 20260509172814 | 62 | 152 | 2.6 | 5.2 | 0.00 | 0.00 | 0.00 | 48 | 1018.5 |
| 20260509172311 | 61 | 111 | 2.6 | 2.6 | 0.00 | 0.00 | 0.00 | 50 | 1018.2 |
| 20260509171806 | 61 | 148 | 2.6 | 2.6 | 0.00 | 0.00 | 0.00 | 53 | 1018.5 |
| 20260509171302 | 61 | 165 | 3.5 | 5.2 | 0.00 | 0.00 | 0.00 | 52 | 1018.5 |
| 20260509170759 | 60 | 188 | 3.5 | 6.1 | 0.00 | 0.00 | 0.00 | 54 | 1018.6 |
| 20260509170255 | 60 | 126 | 1.7 | 2.6 | 0.00 | 0.00 | 0.00 | 55 | 1018.6 |
| 20260509165754 | 60 | 142 | 2.6 | 2.6 | 0.00 | 0.00 | 0.00 | 57 | 1018.7 |
| 20260509165249 | 59 | 145 | 2.6 | 3.5 | 0.00 | 0.00 | 0.00 | 58 | 1018.6 |
| 20260509164746 | 59 | 147 | 1.7 | 2.6 | 0.00 | 0.00 | 0.00 | 58 | 1018.5 |
| 20260509164241 | 59 | 124 | 1.7 | 1.7 | 0.00 | 0.00 | 0.00 | 58 | 1018.7 |
| 20260509163739 | 58 | 127 | 1.7 | 2.6 | 0.00 | 0.00 | 0.00 | 59 | 1019.0 |
| 20260509163235 | 58 | 136 | 0.9 | 0.9 | 0.00 | 0.00 | 0.00 | 59 | 1018.8 |
| 20260509162733 | 58 | 148 | 1.7 | 2.6 | 0.00 | 0.00 | 0.00 | 58 | 1018.9 |
| 20260509162228 | 59 | 131 | 0.0 | 0.0 | 0.00 | 0.00 | 0.00 | 56 | 1018.8 |
| 20260509161724 | 57 | 142 | 0.9 | 1.7 | 0.00 | 0.00 | 0.00 | 59 | 1018.9 |
| 20260509161220 | 58 | 157 | 0.9 | 1.7 | 0.00 | 0.00 | 0.00 | 58 | 1018.9 |
| 20260509160715 | 56 | 138 | 0.0 | 0.0 | 0.00 | 0.00 | 0.00 | 59 | 1018.7 |
| 20260509160212 | 56 | 105 | 0.0 | 0.9 | 0.00 | 0.00 | 0.00 | 59 | 1018.9 |
| 20260509155707 | 54 | 121 | 0.0 | 0.0 | 0.00 | 0.00 | 0.00 | 63 | 1018.8 |
| 20260509155204 | 55 | 112 | 0.0 | 0.0 | 0.00 | 0.00 | 0.00 | 63 | 1018.6 |
| 20260509154700 | 54 | 96 | 0.9 | 0.9 | 0.00 | 0.00 | 0.00 | 65 | 1018.8 |
| 20260509154157 | 53 | 125 | 0.9 | 0.9 | 0.00 | 0.00 | 0.00 | 67 | 1018.9 |
| 20260509153654 | 53 | 89 | 1.7 | 1.7 | 0.00 | 0.00 | 0.00 | 68 | 1019.0 |
| 20260509153150 | 52 | 158 | 1.7 | 1.7 | 0.00 | 0.00 | 0.00 | 68 | 1019.1 |
| 20260509152646 | 51 | 107 | 0.0 | 0.0 | 0.00 | 0.00 | 0.00 | 70 | 1018.8 |
| 20260509152144 | 50 | 139 | 0.0 | 0.0 | 0.00 | 0.00 | 0.00 | 72 | 1018.8 |
| 20260509151640 | 50 | 111 | 0.0 | 0.0 | 0.00 | 0.00 | 0.00 | 72 | 1018.8 |
| 20260509151137 | 48 | 94 | 1.7 | 1.7 | 0.00 | 0.00 | 0.00 | 75 | 1019.0 |
| 20260509150635 | 48 | 105 | 1.7 | 1.7 | 0.00 | 0.00 | 0.00 | 74 | 1018.9 |
| 20260509150133 | 48 | 94 | 0.9 | 1.7 | 0.00 | 0.00 | 0.00 | 74 | 1018.9 |
| 20260509145629 | 48 | 105 | 0.0 | 0.9 | 0.00 | 0.00 | 0.00 | 73 | 1019.0 |
| 20260509145124 | 47 | 116 | 0.0 | 0.0 | 0.00 | 0.00 | 0.00 | 75 | 1019.2 |
| 20260509144621 | 47 | 102 | 0.9 | 0.9 | 0.00 | 0.00 | 0.00 | 76 | 1019.0 |
| 20260509144118 | 46 | 116 | 0.0 | 0.0 | 0.00 | 0.00 | 0.00 | 77 | 1019.1 |
| 20260509143615 | 45 | 63 | 0.9 | 1.7 | 0.00 | 0.00 | 0.00 | 79 | 1019.1 |
| 20260509143113 | 46 | 124 | 0.0 | 0.0 | 0.00 | 0.00 | 0.00 | 76 | 1019.1 |
| 20260509142608 | 45 | 117 | 0.0 | 0.0 | 0.00 | 0.00 | 0.00 | 77 | 1019.1 |
| 20260509142105 | 44 | 116 | 0.0 | 0.0 | 0.00 | 0.00 | 0.00 | 79 | 1019.2 |
| 20260509141601 | 43 | 117 | 0.0 | 0.0 | 0.00 | 0.00 | 0.00 | 80 | 1019.1 |
| 20260509141057 | 43 | 100 | 0.0 | 0.0 | 0.00 | 0.00 | 0.00 | 80 | 1019.2 |
| 20260509140555 | 42 | 136 | 0.0 | 0.0 | 0.00 | 0.00 | 0.00 | 83 | 1019.5 |
| 20260509140052 | 42 | 134 | 0.0 | 0.0 | 0.00 | 0.00 | 0.00 | 83 | 1019.2 |
| 20260509135549 | 42 | 97 | 0.0 | 0.0 | 0.00 | 0.00 | 0.00 | 83 | 1019.2 |
| 20260509135047 | 40 | 107 | 0.0 | 0.0 | 0.00 | 0.00 | 0.00 | 85 | 1019.1 |
| 20260509134544 | 40 | 94 | 0.9 | 0.9 | 0.00 | 0.00 | 0.00 | 85 | 1019.1 |
| 20260509134041 | 40 | 110 | 0.0 | 0.9 | 0.00 | 0.00 | 0.00 | 86 | 1019.1 |
| 20260509133538 | 40 | 108 | 0.0 | 0.0 | 0.00 | 0.00 | 0.00 | 86 | 1019.2 |
| 20260509133035 | 38 | 113 | 0.0 | 0.0 | 0.00 | 0.00 | 0.00 | 88 | 1019.2 |
| 20260509132533 | 38 | 108 | 0.0 | 0.0 | 0.00 | 0.00 | 0.00 | 89 | 1019.0 |
| 20260509132031 | 38 | 107 | 0.0 | 0.0 | 0.00 | 0.00 | 0.00 | 89 | 1019.0 |
| 20260509131522 | 37 | 108 | 0.0 | 0.0 | 0.00 | 0.00 | 0.00 | 90 | 1019.0 |
| 20260509131019 | 37 | 154 | 0.0 | 0.9 | 0.00 | 0.00 | 0.00 | 90 | 1018.9 |
| 20260509130514 | 36 | 160 | 0.0 | 0.0 | 0.00 | 0.00 | 0.00 | 91 | 1019.0 |
| 20260509130012 | 36 | 113 | 0.0 | 0.0 | 0.00 | 0.00 | 0.00 | 92 | 1018.8 |
| 20260509125508 | 36 | 115 | 0.0 | 0.0 | 0.00 | 0.00 | 0.00 | 92 | 1018.9 |
| 20260509125004 | 35 | 121 | 0.0 | 0.0 | 0.00 | 0.00 | 0.00 | 92 | 1018.8 |
| 20260509124501 | 35 | 120 | 0.0 | 0.0 | 0.00 | 0.00 | 0.00 | 92 | 1018.8 |
| 20260509123958 | 35 | 134 | 0.0 | 0.0 | 0.00 | 0.00 | 0.00 | 92 | 1018.7 |
| 20260509123456 | 35 | 134 | 0.0 | 0.0 | 0.00 | 0.00 | 0.00 | 92 | 1018.8 |
| 20260509122951 | 35 | 172 | 0.9 | 0.9 | 0.00 | 0.00 | 0.00 | 93 | 1018.8 |
| 20260509122449 | 35 | 143 | 0.0 | 0.0 | 0.00 | 0.00 | 0.00 | 93 | 1018.9 |
| 20260509121945 | 35 | 126 | 0.0 | 0.0 | 0.00 | 0.00 | 0.00 | 92 | 1019.0 |
| 20260509121442 | 35 | 126 | 0.0 | 0.0 | 0.00 | 0.00 | 0.00 | 92 | 1018.7 |
| 20260509120940 | 35 | 99 | 0.0 | 0.0 | 0.00 | 0.00 | 0.00 | 92 | 1019.0 |
| 20260509120438 | 36 | 143 | 0.0 | 0.0 | 0.00 | 0.00 | 0.00 | 92 | 1018.8 |
| 20260509115936 | 36 | 148 | 0.0 | 0.0 | 0.00 | 0.00 | 0.00 | 92 | 1018.9 |
| 20260509115433 | 36 | 168 | 0.0 | 0.0 | 0.00 | 0.00 | 0.00 | 92 | 1018.7 |
| 20260509114930 | 36 | 117 | 0.0 | 0.0 | 0.00 | 0.00 | 0.00 | 92 | 1018.8 |
| 20260509114429 | 36 | 147 | 0.0 | 0.0 | 0.00 | 0.00 | 0.00 | 92 | 1018.6 |
| 20260509113928 | 36 | 120 | 0.0 | 0.0 | 0.00 | 0.00 | 0.00 | 92 | 1018.7 |
| 20260509113424 | 37 | 120 | 0.0 | 0.0 | 0.00 | 0.00 | 0.00 | 91 | 1018.7 |
| 20260509112921 | 37 | 125 | 0.0 | 0.0 | 0.00 | 0.00 | 0.00 | 90 | 1018.5 |
| 20260509112419 | 37 | 146 | 0.0 | 0.0 | 0.00 | 0.00 | 0.00 | 90 | 1018.6 |
| 20260509111915 | 37 | 151 | 0.0 | 0.0 | 0.00 | 0.00 | 0.00 | 90 | 1018.3 |
| 20260509111412 | 37 | 150 | 0.0 | 0.0 | 0.00 | 0.00 | 0.00 | 90 | 1018.4 |
| 20260509110910 | 37 | 154 | 0.0 | 0.0 | 0.00 | 0.00 | 0.00 | 90 | 1018.5 |
| 20260509110406 | 37 | 186 | 0.9 | 0.9 | 0.00 | 0.00 | 0.00 | 89 | 1018.3 |
| 20260509105904 | 38 | 114 | 0.0 | 0.0 | 0.00 | 0.00 | 0.00 | 89 | 1018.5 |
| 20260509105402 | 38 | 129 | 0.0 | 0.0 | 0.00 | 0.00 | 0.00 | 88 | 1018.3 |
| 20260509104858 | 38 | 148 | 0.0 | 0.0 | 0.00 | 0.00 | 0.00 | 87 | 1018.4 |
| 20260509104355 | 38 | 116 | 0.0 | 0.0 | 0.00 | 0.00 | 0.00 | 88 | 1018.5 |
| 20260509103853 | 38 | 109 | 0.0 | 0.0 | 0.00 | 0.00 | 0.00 | 88 | 1018.3 |
| 20260509103350 | 38 | 117 | 0.0 | 0.0 | 0.00 | 0.00 | 0.00 | 87 | 1018.3 |
| 20260509102849 | 39 | 112 | 0.0 | 0.0 | 0.00 | 0.00 | 0.00 | 87 | 1018.3 |
| 20260509102346 | 39 | 112 | 0.0 | 0.0 | 0.00 | 0.00 | 0.00 | 86 | 1018.2 |
| 20260509101841 | 39 | 112 | 0.0 | 0.0 | 0.00 | 0.00 | 0.00 | 86 | 1018.2 |
| 20260509101337 | 39 | 81 | 0.0 | 0.0 | 0.00 | 0.00 | 0.00 | 86 | 1017.9 |
| 20260509100836 | 39 | 224 | 0.9 | 0.9 | 0.00 | 0.00 | 0.00 | 86 | 1018.2 |
| 20260509100333 | 39 | 114 | 0.0 | 0.0 | 0.00 | 0.00 | 0.00 | 85 | 1018.2 |
| 20260509095829 | 40 | 125 | 0.0 | 0.0 | 0.00 | 0.00 | 0.00 | 85 | 1018.1 |
| 20260509095326 | 40 | 152 | 0.0 | 0.0 | 0.00 | 0.00 | 0.00 | 84 | 1017.9 |
| 20260509094824 | 40 | 143 | 0.9 | 0.9 | 0.00 | 0.00 | 0.00 | 85 | 1018.3 |
| 20260509094320 | 40 | 121 | 0.0 | 0.0 | 0.00 | 0.00 | 0.00 | 84 | 1018.3 |
| 20260509093818 | 40 | 120 | 0.0 | 0.0 | 0.00 | 0.00 | 0.00 | 83 | 1018.3 |
| 20260509093315 | 41 | 119 | 0.0 | 0.0 | 0.00 | 0.00 | 0.00 | 83 | 1018.3 |
| 20260509092814 | 41 | 155 | 0.0 | 0.9 | 0.00 | 0.00 | 0.00 | 82 | 1018.1 |
| 20260509092311 | 41 | 146 | 0.0 | 0.0 | 0.00 | 0.00 | 0.00 | 82 | 1017.7 |
| 20260509091809 | 41 | 118 | 0.0 | 0.0 | 0.00 | 0.00 | 0.00 | 82 | 1018.1 |
| 20260509091305 | 41 | 118 | 0.0 | 0.0 | 0.00 | 0.00 | 0.00 | 82 | 1018.1 |
| 20260509090803 | 42 | 117 | 0.0 | 0.0 | 0.00 | 0.00 | 0.00 | 80 | 1018.1 |
| 20260509090259 | 43 | 114 | 0.0 | 0.9 | 0.00 | 0.00 | 0.00 | 78 | 1017.8 |
| 20260509085757 | 43 | 144 | 0.0 | 0.0 | 0.00 | 0.00 | 0.00 | 77 | 1017.7 |
| 20260509085254 | 43 | 151 | 0.0 | 0.0 | 0.00 | 0.00 | 0.00 | 77 | 1017.8 |
| 20260509084751 | 44 | 162 | 0.9 | 0.9 | 0.00 | 0.00 | 0.00 | 77 | 1017.8 |
| 20260509084247 | 43 | 155 | 0.0 | 0.0 | 0.00 | 0.00 | 0.00 | 77 | 1017.7 |
| 20260509083746 | 44 | 148 | 0.0 | 0.0 | 0.00 | 0.00 | 0.00 | 76 | 1017.8 |
| 20260509083242 | 44 | 154 | 0.9 | 0.9 | 0.00 | 0.00 | 0.00 | 76 | 1017.8 |
| 20260509082738 | 44 | 150 | 0.0 | 0.0 | 0.00 | 0.00 | 0.00 | 76 | 1017.7 |
| 20260509082235 | 44 | 165 | 0.9 | 0.9 | 0.00 | 0.00 | 0.00 | 76 | 1017.6 |
| 20260509081732 | 44 | 160 | 0.0 | 0.9 | 0.00 | 0.00 | 0.00 | 76 | 1017.7 |
| 20260509081230 | 44 | 149 | 0.0 | 0.0 | 0.00 | 0.00 | 0.00 | 76 | 1017.8 |
| 20260509080728 | 44 | 155 | 0.0 | 0.0 | 0.00 | 0.00 | 0.00 | 75 | 1017.8 |
| 20260509080225 | 45 | 138 | 0.9 | 0.9 | 0.00 | 0.00 | 0.00 | 74 | 1017.6 |
| 20260509075723 | 44 | 116 | 0.0 | 0.0 | 0.00 | 0.00 | 0.00 | 76 | 1017.8 |
| 20260509075220 | 45 | 150 | 0.0 | 0.9 | 0.00 | 0.00 | 0.00 | 76 | 1017.6 |
| 20260509074717 | 44 | 148 | 0.0 | 0.0 | 0.00 | 0.00 | 0.00 | 75 | 1017.5 |
| 20260509074215 | 45 | 146 | 0.0 | 0.0 | 0.00 | 0.00 | 0.00 | 75 | 1017.3 |
| 20260509073711 | 45 | 150 | 0.0 | 0.0 | 0.00 | 0.00 | 0.00 | 74 | 1017.6 |
| 20260509073207 | 46 | 143 | 0.0 | 0.0 | 0.00 | 0.00 | 0.00 | 73 | 1017.5 |
| 20260509072704 | 46 | 145 | 0.0 | 0.0 | 0.00 | 0.00 | 0.00 | 73 | 1017.5 |
| 20260509072201 | 47 | 154 | 0.0 | 0.0 | 0.00 | 0.00 | 0.00 | 71 | 1017.4 |
| 20260509071657 | 47 | 140 | 0.0 | 0.0 | 0.00 | 0.00 | 0.00 | 71 | 1017.3 |
| 20260509071155 | 47 | 109 | 0.9 | 0.9 | 0.00 | 0.00 | 0.00 | 72 | 1017.5 |
| 20260509070651 | 47 | 147 | 0.0 | 0.0 | 0.00 | 0.00 | 0.00 | 71 | 1017.5 |
| 20260509070148 | 47 | 150 | 0.0 | 0.0 | 0.00 | 0.00 | 0.00 | 71 | 1017.4 |
| 20260509065644 | 47 | 130 | 0.0 | 0.0 | 0.00 | 0.00 | 0.00 | 70 | 1017.4 |
| 20260509065140 | 47 | 132 | 0.0 | 0.0 | 0.00 | 0.00 | 0.00 | 70 | 1017.2 |
| 20260509064637 | 48 | 140 | 0.0 | 0.0 | 0.00 | 0.00 | 0.00 | 69 | 1017.1 |
| 20260509064135 | 48 | 134 | 0.0 | 0.0 | 0.00 | 0.00 | 0.00 | 68 | 1017.3 |
| 20260509063632 | 48 | 115 | 0.0 | 0.9 | 0.00 | 0.00 | 0.00 | 68 | 1017.2 |
| 20260509063128 | 49 | 128 | 0.0 | 0.0 | 0.00 | 0.00 | 0.00 | 67 | 1017.2 |
| 20260509062626 | 50 | 141 | 0.0 | 0.0 | 0.00 | 0.00 | 0.00 | 64 | 1017.2 |
| 20260509062123 | 50 | 112 | 0.9 | 0.9 | 0.00 | 0.00 | 0.00 | 63 | 1017.0 |
| 20260509061620 | 50 | 153 | 0.0 | 0.0 | 0.00 | 0.00 | 0.00 | 63 | 1017.1 |
| 20260509061117 | 50 | 158 | 0.0 | 0.9 | 0.00 | 0.00 | 0.00 | 63 | 1017.2 |
| 20260509060615 | 51 | 158 | 0.9 | 0.9 | 0.00 | 0.00 | 0.00 | 61 | 1017.2 |
| 20260509060110 | 51 | 135 | 0.0 | 0.0 | 0.00 | 0.00 | 0.00 | 60 | 1017.1 |
| 20260509055606 | 51 | 142 | 0.9 | 0.9 | 0.00 | 0.00 | 0.00 | 60 | 1017.1 |
| 20260509055102 | 51 | 153 | 0.0 | 0.0 | 0.00 | 0.00 | 0.00 | 60 | 1017.0 |
| 20260509054559 | 51 | 158 | 0.0 | 0.0 | 0.00 | 0.00 | 0.00 | 60 | 1017.2 |
| 20260509054057 | 53 | 113 | 0.0 | 0.0 | 0.00 | 0.00 | 0.00 | 58 | 1017.1 |
| 20260509053555 | 55 | 112 | 0.0 | 0.0 | 0.00 | 0.00 | 0.00 | 54 | 1017.1 |
| 20260509053051 | 56 | 153 | 0.0 | 0.0 | 0.00 | 0.00 | 0.00 | 51 | 1016.8 |
| 20260509052550 | 57 | 169 | 0.9 | 0.9 | 0.00 | 0.00 | 0.00 | 49 | 1016.9 |
| 20260509052047 | 57 | 174 | 0.9 | 1.7 | 0.00 | 0.00 | 0.00 | 47 | 1017.0 |
| 20260509051545 | 58 | 223 | 1.7 | 2.6 | 0.00 | 0.00 | 0.00 | 46 | 1016.6 |
| 20260509051041 | 58 | 268 | 3.5 | 3.5 | 0.00 | 0.00 | 0.00 | 45 | 1016.8 |
| 20260509050538 | 58 | 159 | 0.9 | 1.7 | 0.00 | 0.00 | 0.00 | 46 | 1016.5 |
| 20260509050035 | 59 | 243 | 2.6 | 3.5 | 0.00 | 0.00 | 0.00 | 45 | 1016.5 |
| 20260509045532 | 58 | 247 | 2.6 | 2.6 | 0.00 | 0.00 | 0.00 | 46 | 1016.4 |
| 20260509045029 | 58 | 179 | 0.9 | 1.7 | 0.00 | 0.00 | 0.00 | 46 | 1016.0 |
| 20260509044527 | 58 | 191 | 1.7 | 1.7 | 0.00 | 0.00 | 0.00 | 47 | 1016.4 |
| 20260509044024 | 59 | 175 | 0.9 | 1.7 | 0.00 | 0.00 | 0.00 | 45 | 1016.2 |
| 20260509043520 | 59 | 281 | 3.5 | 3.5 | 0.00 | 0.00 | 0.00 | 44 | 1016.2 |
| 20260509043010 | 60 | 178 | 0.9 | 0.9 | 0.00 | 0.00 | 0.00 | 43 | 1016.0 |
| 20260509042507 | 59 | 235 | 1.7 | 2.6 | 0.00 | 0.00 | 0.00 | 43 | 1015.9 |
| 20260509042003 | 60 | 211 | 0.9 | 0.9 | 0.00 | 0.00 | 0.00 | 43 | 1016.0 |
| 20260509041500 | 60 | 149 | 0.0 | 0.9 | 0.00 | 0.00 | 0.00 | 43 | 1016.0 |
| 20260509040958 | 60 | 153 | 0.9 | 0.9 | 0.00 | 0.00 | 0.00 | 42 | 1016.0 |
| 20260509040456 | 61 | 175 | 1.7 | 1.7 | 0.00 | 0.00 | 0.00 | 41 | 1016.0 |
| 20260509035951 | 62 | 288 | 2.6 | 2.6 | 0.00 | 0.00 | 0.00 | 39 | 1016.0 |
| 20260509035449 | 61 | 244 | 3.5 | 6.1 | 0.00 | 0.00 | 0.00 | 40 | 1015.7 |
| 20260509034945 | 62 | 250 | 5.2 | 6.1 | 0.00 | 0.00 | 0.00 | 39 | 1015.7 |
| 20260509034443 | 60 | 205 | 3.5 | 3.5 | 0.00 | 0.00 | 0.00 | 43 | 1015.8 |
| 20260509033940 | 61 | 169 | 0.9 | 0.9 | 0.00 | 0.00 | 0.00 | 42 | 1015.7 |
| 20260509033437 | 62 | 216 | 1.7 | 2.6 | 0.00 | 0.00 | 0.00 | 39 | 1015.3 |
| 20260509032934 | 62 | 233 | 1.7 | 2.6 | 0.00 | 0.00 | 0.00 | 38 | 1015.6 |
| 20260509032431 | 61 | 250 | 3.5 | 5.2 | 0.00 | 0.00 | 0.00 | 38 | 1015.3 |
| 20260509031929 | 62 | 141 | 0.0 | 0.0 | 0.00 | 0.00 | 0.00 | 38 | 1015.3 |
| 20260509031426 | 62 | 150 | 0.0 | 0.0 | 0.00 | 0.00 | 0.00 | 37 | 1015.3 |
| 20260509030924 | 62 | 168 | 0.9 | 1.7 | 0.00 | 0.00 | 0.00 | 37 | 1015.3 |
| 20260509030421 | 63 | 154 | 0.0 | 0.9 | 0.00 | 0.00 | 0.00 | 36 | 1015.0 |
| 20260509025918 | 63 | 152 | 0.9 | 0.9 | 0.00 | 0.00 | 0.00 | 36 | 1015.0 |
| 20260509025414 | 64 | 160 | 0.9 | 0.9 | 0.00 | 0.00 | 0.00 | 34 | 1015.0 |
| 20260509024909 | 63 | 104 | 0.9 | 1.7 | 0.00 | 0.00 | 0.00 | 35 | 1015.0 |
| 20260509024405 | 63 | 156 | 0.9 | 0.9 | 0.00 | 0.00 | 0.00 | 35 | 1014.8 |
| 20260509023903 | 64 | 158 | 2.6 | 2.6 | 0.00 | 0.00 | 0.00 | 36 | 1014.8 |
| 20260509023400 | 65 | 132 | 1.7 | 2.6 | 0.00 | 0.00 | 0.00 | 34 | 1014.7 |
| 20260509022856 | 66 | 278 | 4.3 | 6.1 | 0.00 | 0.00 | 0.00 | 33 | 1014.7 |
| 20260509022353 | 66 | 251 | 3.5 | 5.2 | 0.00 | 0.00 | 0.00 | 32 | 1014.7 |
| 20260509021851 | 66 | 261 | 1.7 | 2.6 | 0.00 | 0.00 | 0.00 | 32 | 1014.6 |
| 20260509021347 | 66 | 271 | 4.3 | 6.1 | 0.00 | 0.00 | 0.00 | 32 | 1014.6 |
| 20260509020845 | 67 | 263 | 3.5 | 3.5 | 0.00 | 0.00 | 0.00 | 32 | 1014.7 |
| 20260509020343 | 67 | 186 | 4.3 | 6.1 | 0.00 | 0.00 | 0.00 | 31 | 1014.4 |
| 20260509015840 | 68 | 202 | 1.7 | 3.5 | 0.00 | 0.00 | 0.00 | 30 | 1014.4 |
| 20260509015338 | 67 | 141 | 1.7 | 1.7 | 0.00 | 0.00 | 0.00 | 30 | 1014.5 |
| 20260509014835 | 67 | 105 | 1.7 | 2.6 | 0.00 | 0.00 | 0.00 | 30 | 1014.5 |
| 20260509014332 | 68 | 251 | 1.7 | 2.6 | 0.00 | 0.00 | 0.00 | 28 | 1014.4 |
| 20260509013828 | 68 | 69 | 2.6 | 2.6 | 0.00 | 0.00 | 0.00 | 28 | 1014.5 |
| 20260509013324 | 68 | 255 | 1.7 | 3.5 | 0.00 | 0.00 | 0.00 | 26 | 1014.5 |
| 20260509012815 | 68 | 211 | 1.7 | 2.6 | 0.00 | 0.00 | 0.00 | 26 | 1014.5 |
| 20260509012312 | 68 | 171 | 0.9 | 0.9 | 0.00 | 0.00 | 0.00 | 27 | 1014.4 |
| 20260509011809 | 68 | 196 | 3.5 | 3.5 | 0.00 | 0.00 | 0.00 | 26 | 1014.2 |
| 20260509011307 | 68 | 104 | 3.5 | 5.2 | 0.00 | 0.00 | 0.00 | 26 | 1014.3 |